| time (UTC) | temp F | wind direction | speed MPH | gust MPH | rain 1hr in | rain 24hr in | rain mn in | humidity % | barometer mb |
| 20260504202016 | 78 | 313 | 4.0 | 7.0 | 0.00 | 0.00 | 0.00 | 23 | 944.0 |
| 20260504201455 | 77 | 135 | 3.0 | 5.0 | 0.00 | 0.00 | 0.00 | 23 | 944.0 |
| 20260504201254 | 77 | 63 | 0.0 | 7.0 | 0.00 | 0.00 | 0.00 | 24 | 944.0 |
| 20260504201045 | 77 | 55 | 0.0 | 7.0 | 0.00 | 0.00 | 0.00 | 23 | 944.0 |
| 20260504200844 | 77 | 58 | 4.0 | 7.0 | 0.00 | 0.00 | 0.00 | 22 | 944.0 |
| 20260504200634 | 78 | 319 | 0.0 | 6.0 | 0.00 | 0.00 | 0.00 | 23 | 944.0 |
| 20260504195755 | 78 | 23 | 2.0 | 5.0 | 0.00 | 0.00 | 0.00 | 22 | 944.0 |
| 20260504195233 | 79 | 239 | 2.0 | 4.0 | 0.00 | 0.00 | 0.00 | 22 | 945.0 |
| 20260504195029 | 78 | 56 | 0.0 | 0.0 | 0.00 | 0.00 | 0.00 | 24 | 945.0 |
| 20260504194819 | 78 | 56 | 3.0 | 4.0 | 0.00 | 0.00 | 0.00 | 24 | 945.0 |
| 20260504194613 | 78 | 51 | 0.0 | 4.0 | 0.00 | 0.00 | 0.00 | 23 | 945.0 |
| 20260504194413 | 78 | 55 | 0.0 | 0.0 | 0.00 | 0.00 | 0.00 | 23 | 945.0 |
| 20260504194203 | 78 | 54 | 0.0 | 0.0 | 0.00 | 0.00 | 0.00 | 24 | 945.0 |
| 20260504193955 | 77 | 53 | 3.0 | 4.0 | 0.00 | 0.00 | 0.00 | 24 | 945.0 |
| 20260504193749 | 77 | 326 | 0.0 | 3.0 | 0.00 | 0.00 | 0.00 | 23 | 945.0 |
| 20260504193543 | 76 | 288 | 0.0 | 4.0 | 0.00 | 0.00 | 0.00 | 23 | 945.0 |
| 20260504192331 | 75 | 317 | 0.0 | 4.0 | 0.00 | 0.00 | 0.00 | 25 | 945.0 |
| 20260504191813 | 75 | 89 | 3.0 | 4.0 | 0.00 | 0.00 | 0.00 | 26 | 945.0 |
| 20260504191605 | 75 | 51 | 0.0 | 6.0 | 0.00 | 0.00 | 0.00 | 27 | 945.0 |
| 20260504191406 | 74 | 51 | 3.0 | 6.0 | 0.00 | 0.00 | 0.00 | 24 | 945.0 |
| 20260504191204 | 75 | 37 | 0.0 | 6.0 | 0.00 | 0.00 | 0.00 | 24 | 945.0 |
| 20260504190954 | 75 | 27 | 1.0 | 6.0 | 0.00 | 0.00 | 0.00 | 25 | 945.0 |
| 20260504190751 | 75 | 64 | 3.0 | 4.0 | 0.00 | 0.00 | 0.00 | 26 | 945.0 |
| 20260504190551 | 76 | 40 | 2.0 | 3.0 | 0.00 | 0.00 | 0.00 | 24 | 945.0 |
| 20260504190345 | 76 | 144 | 0.0 | 0.0 | 0.00 | 0.00 | 0.00 | 24 | 945.0 |
| 20260504185817 | 78 | 56 | 1.0 | 3.0 | 0.00 | 0.00 | 0.00 | 26 | 945.0 |
| 20260504185610 | 76 | 70 | 0.0 | 0.0 | 0.00 | 0.00 | 0.00 | 28 | 945.0 |
| 20260504185408 | 74 | 11 | 0.0 | 0.0 | 0.00 | 0.00 | 0.00 | 31 | 945.0 |
| 20260504185203 | 74 | 11 | 1.0 | 3.0 | 0.00 | 0.00 | 0.00 | 27 | 945.0 |
| 20260504184956 | 74 | 10 | 0.0 | 3.0 | 0.00 | 0.00 | 0.00 | 29 | 945.0 |
| 20260504184751 | 74 | 11 | 0.0 | 3.0 | 0.00 | 0.00 | 0.00 | 28 | 945.0 |
| 20260504184547 | 74 | 326 | 0.0 | 0.0 | 0.00 | 0.00 | 0.00 | 29 | 945.0 |
| 20260504184345 | 73 | 325 | 0.0 | 0.0 | 0.00 | 0.00 | 0.00 | 30 | 945.0 |
| 20260504184145 | 73 | 325 | 0.0 | 0.0 | 0.00 | 0.00 | 0.00 | 30 | 945.0 |
| 20260504183937 | 73 | 321 | 0.0 | 4.0 | 0.00 | 0.00 | 0.00 | 26 | 945.0 |
| 20260504183735 | 73 | 319 | 0.0 | 4.0 | 0.00 | 0.00 | 0.00 | 26 | 945.0 |
| 20260504183528 | 73 | 27 | 0.0 | 4.0 | 0.00 | 0.00 | 0.00 | 27 | 945.0 |
| 20260504183317 | 74 | 27 | 1.0 | 4.0 | 0.00 | 0.00 | 0.00 | 29 | 945.0 |
| 20260504183114 | 74 | 71 | 1.0 | 4.0 | 0.00 | 0.00 | 0.00 | 31 | 945.0 |
| 20260504182552 | 72 | 135 | 0.0 | 0.0 | 0.00 | 0.00 | 0.00 | 30 | 945.0 |
| 20260504182348 | 72 | 136 | 0.0 | 0.0 | 0.00 | 0.00 | 0.00 | 27 | 945.0 |
| 20260504182143 | 71 | 137 | 2.0 | 3.0 | 0.00 | 0.00 | 0.00 | 31 | 945.0 |
| 20260504181621 | 71 | 263 | 2.0 | 3.0 | 0.00 | 0.00 | 0.00 | 27 | 945.0 |
| 20260504181412 | 71 | 10 | 0.0 | 2.0 | 0.00 | 0.00 | 0.00 | 28 | 945.0 |
| 20260504181209 | 71 | 51 | 1.0 | 6.0 | 0.00 | 0.00 | 0.00 | 29 | 945.0 |
| 20260504181010 | 71 | 22 | 1.0 | 6.0 | 0.00 | 0.00 | 0.00 | 29 | 945.0 |
| 20260504180802 | 71 | 265 | 0.0 | 6.0 | 0.00 | 0.00 | 0.00 | 29 | 945.0 |
| 20260504180600 | 71 | 262 | 1.0 | 6.0 | 0.00 | 0.00 | 0.00 | 28 | 945.0 |
| 20260504180035 | 70 | 17 | 0.0 | 4.0 | 0.00 | 0.00 | 0.00 | 29 | 945.0 |
| 20260504175835 | 70 | 326 | 2.0 | 4.0 | 0.00 | 0.00 | 0.00 | 28 | 945.0 |
| 20260504175631 | 70 | 286 | 0.0 | 2.0 | 0.00 | 0.00 | 0.00 | 30 | 945.0 |
| 20260504175426 | 70 | 241 | 1.0 | 3.0 | 0.00 | 0.00 | 0.00 | 28 | 945.0 |
| 20260504174855 | 70 | 46 | 2.0 | 3.0 | 0.00 | 0.00 | 0.00 | 29 | 945.0 |
| 20260504174649 | 70 | 314 | 0.0 | 4.0 | 0.00 | 0.00 | 0.00 | 29 | 945.0 |
| 20260504174446 | 70 | 314 | 0.0 | 4.0 | 0.00 | 0.00 | 0.00 | 32 | 945.0 |
| 20260504174240 | 70 | 23 | 1.0 | 4.0 | 0.00 | 0.00 | 0.00 | 32 | 945.0 |
| 20260504174034 | 69 | 57 | 3.0 | 4.0 | 0.00 | 0.00 | 0.00 | 31 | 945.0 |
| 20260504173832 | 69 | 37 | 0.0 | 0.0 | 0.00 | 0.00 | 0.00 | 32 | 945.0 |
| 20260504173621 | 69 | 37 | 0.0 | 0.0 | 0.00 | 0.00 | 0.00 | 33 | 945.0 |
| 20260504173418 | 69 | 37 | 1.0 | 4.0 | 0.00 | 0.00 | 0.00 | 32 | 945.0 |
| 20260504173212 | 68 | 64 | 2.0 | 4.0 | 0.00 | 0.00 | 0.00 | 32 | 945.0 |
| 20260504173010 | 68 | 23 | 0.0 | 4.0 | 0.00 | 0.00 | 0.00 | 33 | 945.0 |
| 20260504172805 | 68 | 23 | 0.0 | 4.0 | 0.00 | 0.00 | 0.00 | 33 | 945.0 |
| 20260504172556 | 67 | 23 | 3.0 | 4.0 | 0.00 | 0.00 | 0.00 | 33 | 945.0 |
| 20260504172356 | 68 | 58 | 0.0 | 3.0 | 0.00 | 0.00 | 0.00 | 33 | 945.0 |
| 20260504171825 | 67 | 56 | 3.0 | 3.0 | 0.00 | 0.00 | 0.00 | 33 | 945.0 |
| 20260504171308 | 67 | 49 | 0.0 | 0.0 | 0.00 | 0.00 | 0.00 | 34 | 945.0 |
| 20260504171057 | 67 | 322 | 0.0 | 3.0 | 0.00 | 0.00 | 0.00 | 34 | 945.0 |
| 20260504170850 | 66 | 322 | 0.0 | 3.0 | 0.00 | 0.00 | 0.00 | 34 | 945.0 |
| 20260504170649 | 66 | 0 | 0.0 | 3.0 | 0.00 | 0.00 | 0.00 | 34 | 945.0 |
| 20260504170443 | 66 | 37 | 0.0 | 3.0 | 0.00 | 0.00 | 0.00 | 34 | 945.0 |
| 20260504170241 | 66 | 37 | 2.0 | 3.0 | 0.00 | 0.00 | 0.00 | 34 | 945.0 |
| 20260504160420 | 59 | 86 | 0.0 | 3.0 | 0.00 | 0.00 | 0.00 | 45 | 944.0 |
| 20260504160218 | 59 | 86 | 0.0 | 3.0 | 0.00 | 0.00 | 0.00 | 46 | 944.0 |
| 20260504150808 | 53 | 220 | 0.0 | 0.0 | 0.00 | 0.00 | 0.00 | 61 | 945.0 |
| 20260504150244 | 53 | 220 | 0.0 | 0.0 | 0.00 | 0.00 | 0.00 | 62 | 945.0 |
| 20260504141036 | 49 | 220 | 0.0 | 0.0 | 0.00 | 0.00 | 0.00 | 73 | 945.0 |
| 20260504140506 | 49 | 220 | 0.0 | 0.0 | 0.00 | 0.00 | 0.00 | 74 | 945.0 |
| 20260504140257 | 49 | 220 | 0.0 | 0.0 | 0.00 | 0.00 | 0.00 | 74 | 945.0 |
| 20260504130813 | 47 | 220 | 0.0 | 0.0 | 0.00 | 0.00 | 0.00 | 70 | 944.0 |
| 20260504130613 | 47 | 220 | 0.0 | 0.0 | 0.00 | 0.00 | 0.00 | 70 | 944.0 |
| 20260504120315 | 48 | 220 | 0.0 | 0.0 | 0.00 | 0.00 | 0.00 | 66 | 944.0 |
| 20260504120112 | 48 | 220 | 0.0 | 0.0 | 0.00 | 0.00 | 0.00 | 66 | 944.0 |
| 20260504110131 | 49 | 220 | 0.0 | 0.0 | 0.00 | 0.00 | 0.00 | 64 | 944.0 |
| 20260504100525 | 52 | 220 | 0.0 | 0.0 | 0.00 | 0.00 | 0.00 | 58 | 944.0 |
| 20260504081821 | 55 | 220 | 0.0 | 0.0 | 0.00 | 0.00 | 0.00 | 48 | 944.0 |
| 20260504081619 | 55 | 220 | 0.0 | 0.0 | 0.00 | 0.00 | 0.00 | 48 | 944.0 |
| 20260504081416 | 55 | 220 | 0.0 | 0.0 | 0.00 | 0.00 | 0.00 | 49 | 944.0 |
| 20260504081207 | 56 | 220 | 0.0 | 0.0 | 0.00 | 0.00 | 0.00 | 47 | 944.0 |
| 20260504080959 | 56 | 220 | 0.0 | 0.0 | 0.00 | 0.00 | 0.00 | 47 | 944.0 |
| 20260504080756 | 56 | 220 | 0.0 | 0.0 | 0.00 | 0.00 | 0.00 | 47 | 944.0 |
| 20260504080557 | 56 | 220 | 0.0 | 0.0 | 0.00 | 0.00 | 0.00 | 47 | 944.0 |
| 20260504060211 | 60 | 220 | 0.0 | 0.0 | 0.00 | 0.00 | 0.00 | 36 | 944.0 |
| 20260504050720 | 62 | 220 | 0.0 | 0.0 | 0.00 | 0.00 | 0.00 | 35 | 944.0 |
| 20260504050516 | 62 | 220 | 0.0 | 0.0 | 0.00 | 0.00 | 0.00 | 35 | 944.0 |
| 20260504045953 | 62 | 220 | 0.0 | 0.0 | 0.00 | 0.00 | 0.00 | 35 | 944.0 |
| 20260504045743 | 62 | 220 | 0.0 | 0.0 | 0.00 | 0.00 | 0.00 | 35 | 944.0 |
| 20260504045540 | 62 | 220 | 0.0 | 0.0 | 0.00 | 0.00 | 0.00 | 35 | 944.0 |
| 20260504044658 | 62 | 220 | 0.0 | 3.0 | 0.00 | 0.00 | 0.00 | 36 | 944.0 |
| 20260504044450 | 62 | 220 | 1.0 | 3.0 | 0.00 | 0.00 | 0.00 | 36 | 944.0 |
| 20260504044241 | 62 | 221 | 2.0 | 3.0 | 0.00 | 0.00 | 0.00 | 36 | 944.0 |
| 20260504044040 | 62 | 221 | 2.0 | 3.0 | 0.00 | 0.00 | 0.00 | 36 | 944.0 |
| 20260504043836 | 62 | 218 | 1.0 | 3.0 | 0.00 | 0.00 | 0.00 | 35 | 944.0 |
| 20260504043630 | 62 | 218 | 1.0 | 3.0 | 0.00 | 0.00 | 0.00 | 35 | 944.0 |
| 20260504043422 | 63 | 218 | 1.0 | 3.0 | 0.00 | 0.00 | 0.00 | 35 | 944.0 |
| 20260504043216 | 63 | 218 | 2.0 | 3.0 | 0.00 | 0.00 | 0.00 | 35 | 944.0 |
| 20260504042328 | 63 | 225 | 1.0 | 3.0 | 0.00 | 0.00 | 0.00 | 35 | 944.0 |
| 20260504042122 | 63 | 223 | 2.0 | 3.0 | 0.00 | 0.00 | 0.00 | 35 | 944.0 |
| 20260504041922 | 63 | 222 | 2.0 | 3.0 | 0.00 | 0.00 | 0.00 | 35 | 944.0 |
| 20260504041718 | 63 | 226 | 2.0 | 3.0 | 0.00 | 0.00 | 0.00 | 35 | 944.0 |
| 20260504041518 | 63 | 225 | 3.0 | 3.0 | 0.00 | 0.00 | 0.00 | 35 | 944.0 |
| 20260504041314 | 64 | 227 | 2.0 | 3.0 | 0.00 | 0.00 | 0.00 | 34 | 944.0 |
| 20260504041112 | 64 | 229 | 3.0 | 3.0 | 0.00 | 0.00 | 0.00 | 35 | 944.0 |
| 20260504040912 | 64 | 226 | 3.0 | 3.0 | 0.00 | 0.00 | 0.00 | 35 | 944.0 |
| 20260504040709 | 64 | 224 | 3.0 | 3.0 | 0.00 | 0.00 | 0.00 | 34 | 944.0 |
| 20260504040508 | 64 | 232 | 2.0 | 3.0 | 0.00 | 0.00 | 0.00 | 34 | 944.0 |
| 20260504040301 | 64 | 219 | 3.0 | 3.0 | 0.00 | 0.00 | 0.00 | 34 | 944.0 |
| 20260504035730 | 64 | 225 | 1.0 | 3.0 | 0.00 | 0.00 | 0.00 | 33 | 944.0 |
| 20260504035527 | 64 | 232 | 1.0 | 3.0 | 0.00 | 0.00 | 0.00 | 33 | 944.0 |
| 20260504035327 | 64 | 234 | 0.0 | 0.0 | 0.00 | 0.00 | 0.00 | 34 | 944.0 |
| 20260504035121 | 64 | 234 | 0.0 | 0.0 | 0.00 | 0.00 | 0.00 | 33 | 944.0 |
| 20260504034913 | 64 | 229 | 0.0 | 0.0 | 0.00 | 0.00 | 0.00 | 33 | 944.0 |
| 20260504034344 | 64 | 229 | 1.0 | 3.0 | 0.00 | 0.00 | 0.00 | 33 | 944.0 |
| 20260504034145 | 64 | 231 | 1.0 | 3.0 | 0.00 | 0.00 | 0.00 | 33 | 944.0 |
| 20260504033935 | 64 | 229 | 2.0 | 3.0 | 0.00 | 0.00 | 0.00 | 33 | 944.0 |
| 20260504033409 | 65 | 225 | 1.0 | 3.0 | 0.00 | 0.00 | 0.00 | 33 | 944.0 |
| 20260504032532 | 65 | 227 | 2.0 | 3.0 | 0.00 | 0.00 | 0.00 | 33 | 944.0 |
| 20260504032323 | 65 | 221 | 2.0 | 3.0 | 0.00 | 0.00 | 0.00 | 33 | 944.0 |
| 20260504031757 | 66 | 231 | 1.0 | 3.0 | 0.00 | 0.00 | 0.00 | 33 | 944.0 |
| 20260504031549 | 66 | 233 | 1.0 | 3.0 | 0.00 | 0.00 | 0.00 | 33 | 944.0 |
| 20260504030712 | 66 | 225 | 2.0 | 4.0 | 0.00 | 0.00 | 0.00 | 32 | 944.0 |
| 20260504030502 | 66 | 230 | 2.0 | 4.0 | 0.00 | 0.00 | 0.00 | 32 | 944.0 |
| 20260504025925 | 67 | 218 | 1.0 | 4.0 | 0.00 | 0.00 | 0.00 | 32 | 944.0 |
| 20260504025719 | 67 | 218 | 3.0 | 4.0 | 0.00 | 0.00 | 0.00 | 32 | 944.0 |
| 20260504025155 | 67 | 245 | 2.0 | 4.0 | 0.00 | 0.00 | 0.00 | 32 | 944.0 |
| 20260504024951 | 67 | 220 | 3.0 | 3.0 | 0.00 | 0.00 | 0.00 | 31 | 944.0 |
| 20260504024746 | 67 | 219 | 3.0 | 3.0 | 0.00 | 0.00 | 0.00 | 31 | 944.0 |
| 20260504024543 | 67 | 223 | 2.0 | 3.0 | 0.00 | 0.00 | 0.00 | 31 | 944.0 |
| 20260504024335 | 67 | 223 | 3.0 | 3.0 | 0.00 | 0.00 | 0.00 | 31 | 944.0 |
| 20260504024132 | 67 | 228 | 2.0 | 3.0 | 0.00 | 0.00 | 0.00 | 30 | 944.0 |
| 20260504023926 | 68 | 230 | 2.0 | 3.0 | 0.00 | 0.00 | 0.00 | 30 | 944.0 |
| 20260504023725 | 68 | 230 | 1.0 | 3.0 | 0.00 | 0.00 | 0.00 | 30 | 944.0 |
| 20260504023523 | 68 | 226 | 3.0 | 3.0 | 0.00 | 0.00 | 0.00 | 29 | 944.0 |
| 20260504023314 | 68 | 232 | 0.0 | 0.0 | 0.00 | 0.00 | 0.00 | 28 | 944.0 |
| 20260504023103 | 68 | 227 | 0.0 | 3.0 | 0.00 | 0.00 | 0.00 | 28 | 944.0 |
| 20260504022901 | 69 | 227 | 1.0 | 3.0 | 0.00 | 0.00 | 0.00 | 28 | 944.0 |
| 20260504022656 | 69 | 227 | 2.0 | 3.0 | 0.00 | 0.00 | 0.00 | 27 | 944.0 |
| 20260504022450 | 69 | 226 | 1.0 | 3.0 | 0.00 | 0.00 | 0.00 | 27 | 944.0 |
| 20260504022240 | 69 | 227 | 0.0 | 0.0 | 0.00 | 0.00 | 0.00 | 27 | 944.0 |
| 20260504022037 | 69 | 227 | 0.0 | 0.0 | 0.00 | 0.00 | 0.00 | 26 | 944.0 |
| 20260504021837 | 69 | 227 | 0.0 | 0.0 | 0.00 | 0.00 | 0.00 | 26 | 944.0 |
| 20260504021636 | 69 | 227 | 0.0 | 0.0 | 0.00 | 0.00 | 0.00 | 27 | 944.0 |
| 20260504021426 | 70 | 227 | 0.0 | 0.0 | 0.00 | 0.00 | 0.00 | 26 | 944.0 |
| 20260504020906 | 70 | 226 | 0.0 | 0.0 | 0.00 | 0.00 | 0.00 | 25 | 944.0 |
| 20260504020338 | 71 | 227 | 0.0 | 0.0 | 0.00 | 0.00 | 0.00 | 25 | 944.0 |
| 20260504015816 | 72 | 227 | 1.0 | 3.0 | 0.00 | 0.00 | 0.00 | 24 | 944.0 |
| 20260504015612 | 72 | 229 | 0.0 | 3.0 | 0.00 | 0.00 | 0.00 | 23 | 944.0 |
| 20260504015409 | 72 | 302 | 0.0 | 0.0 | 0.00 | 0.00 | 0.00 | 24 | 944.0 |
| 20260504015200 | 72 | 240 | 0.0 | 0.0 | 0.00 | 0.00 | 0.00 | 24 | 944.0 |
| 20260504014956 | 72 | 241 | 0.0 | 0.0 | 0.00 | 0.00 | 0.00 | 24 | 944.0 |
| 20260504014750 | 73 | 240 | 0.0 | 0.0 | 0.00 | 0.00 | 0.00 | 24 | 944.0 |
| 20260504014548 | 73 | 243 | 0.0 | 2.0 | 0.00 | 0.00 | 0.00 | 23 | 944.0 |
| 20260504014340 | 73 | 9 | 0.0 | 0.0 | 0.00 | 0.00 | 0.00 | 24 | 944.0 |
| 20260504013456 | 74 | 234 | 0.0 | 0.0 | 0.00 | 0.00 | 0.00 | 23 | 945.0 |
| 20260504013245 | 74 | 234 | 0.0 | 3.0 | 0.00 | 0.00 | 0.00 | 23 | 945.0 |
| 20260504013040 | 74 | 234 | 3.0 | 3.0 | 0.00 | 0.00 | 0.00 | 23 | 945.0 |
| 20260504012835 | 74 | 276 | 0.0 | 0.0 | 0.00 | 0.00 | 0.00 | 23 | 945.0 |
| 20260504012630 | 75 | 276 | 0.0 | 0.0 | 0.00 | 0.00 | 0.00 | 22 | 945.0 |
| 20260504012421 | 75 | 276 | 0.0 | 3.0 | 0.00 | 0.00 | 0.00 | 22 | 945.0 |
| 20260504012218 | 76 | 282 | 0.0 | 0.0 | 0.00 | 0.00 | 0.00 | 22 | 945.0 |
| 20260504012014 | 76 | 244 | 0.0 | 3.0 | 0.00 | 0.00 | 0.00 | 21 | 945.0 |
| 20260504011809 | 76 | 217 | 2.0 | 3.0 | 0.00 | 0.00 | 0.00 | 22 | 945.0 |
| 20260504011559 | 76 | 339 | 0.0 | 2.0 | 0.00 | 0.00 | 0.00 | 21 | 945.0 |
| 20260504011034 | 76 | 309 | 0.0 | 0.0 | 0.00 | 0.00 | 0.00 | 21 | 945.0 |
| 20260504010828 | 76 | 309 | 0.0 | 0.0 | 0.00 | 0.00 | 0.00 | 22 | 945.0 |
| 20260504010619 | 76 | 309 | 1.0 | 3.0 | 0.00 | 0.00 | 0.00 | 22 | 945.0 |
| 20260504010419 | 76 | 357 | 0.0 | 3.0 | 0.00 | 0.00 | 0.00 | 21 | 945.0 |
| 20260504010220 | 77 | 275 | 0.0 | 0.0 | 0.00 | 0.00 | 0.00 | 21 | 945.0 |
| 20260504010020 | 77 | 275 | 0.0 | 3.0 | 0.00 | 0.00 | 0.00 | 21 | 945.0 |
| 20260504005821 | 77 | 275 | 0.0 | 3.0 | 0.00 | 0.00 | 0.00 | 21 | 945.0 |
| 20260504005618 | 77 | 337 | 0.0 | 0.0 | 0.00 | 0.00 | 0.00 | 20 | 945.0 |
| 20260504005414 | 77 | 182 | 0.0 | 3.0 | 0.00 | 0.00 | 0.00 | 20 | 945.0 |
| 20260504005214 | 77 | 183 | 1.0 | 3.0 | 0.00 | 0.00 | 0.00 | 20 | 945.0 |
| 20260504005014 | 78 | 165 | 0.0 | 3.0 | 0.00 | 0.00 | 0.00 | 20 | 945.0 |
| 20260504004812 | 78 | 166 | 0.0 | 3.0 | 0.00 | 0.00 | 0.00 | 20 | 945.0 |
| 20260504004605 | 78 | 198 | 0.0 | 1.0 | 0.00 | 0.00 | 0.00 | 20 | 945.0 |
| 20260504004403 | 78 | 322 | 0.0 | 3.0 | 0.00 | 0.00 | 0.00 | 20 | 945.0 |
| 20260504004159 | 79 | 322 | 0.0 | 0.0 | 0.00 | 0.00 | 0.00 | 21 | 945.0 |
| 20260504003949 | 79 | 322 | 0.0 | 6.0 | 0.00 | 0.00 | 0.00 | 20 | 945.0 |
| 20260504003429 | 80 | 39 | 2.0 | 3.0 | 0.00 | 0.00 | 0.00 | 20 | 945.0 |
| 20260504002904 | 81 | 330 | 0.0 | 3.0 | 0.00 | 0.00 | 0.00 | 20 | 945.0 |
| 20260504002701 | 82 | 275 | 2.0 | 3.0 | 0.00 | 0.00 | 0.00 | 19 | 945.0 |
| 20260504002452 | 82 | 345 | 0.0 | 3.0 | 0.00 | 0.00 | 0.00 | 19 | 945.0 |
| 20260504001614 | 84 | 60 | 0.0 | 4.0 | 0.00 | 0.00 | 0.00 | 19 | 945.0 |
| 20260504001414 | 85 | 163 | 2.0 | 4.0 | 0.00 | 0.00 | 0.00 | 19 | 945.0 |
| 20260504001209 | 85 | 173 | 1.0 | 4.0 | 0.00 | 0.00 | 0.00 | 19 | 945.0 |
| 20260504001007 | 86 | 142 | 0.0 | 0.0 | 0.00 | 0.00 | 0.00 | 18 | 945.0 |
| 20260504000807 | 87 | 143 | 0.0 | 0.0 | 0.00 | 0.00 | 0.00 | 18 | 945.0 |
| 20260504000559 | 86 | 143 | 0.0 | 0.0 | 0.00 | 0.00 | 0.00 | 18 | 945.0 |
| 20260504000354 | 86 | 153 | 0.0 | 0.0 | 0.00 | 0.00 | 0.00 | 18 | 945.0 |
| 20260504000144 | 86 | 156 | 0.0 | 0.0 | 0.00 | 0.00 | 0.00 | 18 | 945.0 |
| 20260503235938 | 85 | 226 | 0.0 | 4.0 | 0.00 | 0.00 | 0.00 | 18 | 945.0 |
| 20260503235731 | 85 | 253 | 3.0 | 4.0 | 0.00 | 0.00 | 0.00 | 18 | 945.0 |
| 20260503235531 | 86 | 300 | 0.0 | 2.0 | 0.00 | 0.00 | 0.00 | 18 | 945.0 |
| 20260503235325 | 85 | 345 | 0.0 | 4.0 | 0.00 | 0.00 | 0.00 | 19 | 946.0 |
| 20260503235125 | 85 | 345 | 1.0 | 4.0 | 0.00 | 0.00 | 0.00 | 18 | 946.0 |
| 20260503234918 | 85 | 295 | 1.0 | 4.0 | 0.00 | 0.00 | 0.00 | 18 | 946.0 |
| 20260503234716 | 85 | 336 | 1.0 | 3.0 | 0.00 | 0.00 | 0.00 | 18 | 946.0 |
| 20260503234516 | 85 | 41 | 0.0 | 0.0 | 0.00 | 0.00 | 0.00 | 19 | 946.0 |
| 20260503234314 | 85 | 41 | 2.0 | 3.0 | 0.00 | 0.00 | 0.00 | 18 | 946.0 |
| 20260503234109 | 86 | 324 | 0.0 | 6.0 | 0.00 | 0.00 | 0.00 | 18 | 946.0 |
| 20260503233900 | 86 | 114 | 1.0 | 6.0 | 0.00 | 0.00 | 0.00 | 18 | 946.0 |
| 20260503233652 | 86 | 124 | 2.0 | 6.0 | 0.00 | 0.00 | 0.00 | 18 | 946.0 |
| 20260503233452 | 86 | 165 | 0.0 | 6.0 | 0.00 | 0.00 | 0.00 | 19 | 946.0 |
| 20260503233242 | 85 | 279 | 0.0 | 6.0 | 0.00 | 0.00 | 0.00 | 19 | 946.0 |
| 20260503232717 | 85 | 167 | 0.0 | 6.0 | 0.00 | 0.00 | 0.00 | 18 | 946.0 |
| 20260503232143 | 84 | 120 | 1.0 | 5.0 | 0.00 | 0.00 | 0.00 | 19 | 946.0 |
| 20260503231943 | 84 | 130 | 0.0 | 5.0 | 0.00 | 0.00 | 0.00 | 19 | 946.0 |
| 20260503231740 | 84 | 206 | 3.0 | 4.0 | 0.00 | 0.00 | 0.00 | 19 | 946.0 |
| 20260503231533 | 83 | 223 | 3.0 | 4.0 | 0.00 | 0.00 | 0.00 | 19 | 946.0 |
| 20260503231327 | 83 | 290 | 0.0 | 4.0 | 0.00 | 0.00 | 0.00 | 19 | 946.0 |
| 20260503231128 | 83 | 252 | 0.0 | 4.0 | 0.00 | 0.00 | 0.00 | 19 | 946.0 |
| 20260503230921 | 83 | 287 | 4.0 | 4.0 | 0.00 | 0.00 | 0.00 | 19 | 946.0 |
| 20260503230717 | 82 | 64 | 0.0 | 3.0 | 0.00 | 0.00 | 0.00 | 20 | 946.0 |
| 20260503230154 | 81 | 175 | 3.0 | 3.0 | 0.00 | 0.00 | 0.00 | 20 | 946.0 |
| 20260503225628 | 80 | 229 | 3.0 | 5.0 | 0.00 | 0.00 | 0.00 | 20 | 946.0 |
| 20260503225425 | 80 | 248 | 0.0 | 5.0 | 0.00 | 0.00 | 0.00 | 20 | 946.0 |
| 20260503225219 | 80 | 264 | 0.0 | 5.0 | 0.00 | 0.00 | 0.00 | 20 | 946.0 |
| 20260503225018 | 80 | 140 | 1.0 | 5.0 | 0.00 | 0.00 | 0.00 | 20 | 946.0 |
| 20260503224815 | 80 | 128 | 1.0 | 3.0 | 0.00 | 0.00 | 0.00 | 21 | 946.0 |
| 20260503224605 | 80 | 2 | 1.0 | 3.0 | 0.00 | 0.00 | 0.00 | 21 | 946.0 |
| 20260503224359 | 80 | 337 | 0.0 | 0.0 | 0.00 | 0.00 | 0.00 | 20 | 946.0 |
| 20260503224159 | 81 | 337 | 0.0 | 0.0 | 0.00 | 0.00 | 0.00 | 20 | 946.0 |
| 20260503223956 | 81 | 337 | 0.0 | 3.0 | 0.00 | 0.00 | 0.00 | 20 | 946.0 |
| 20260503223746 | 81 | 337 | 3.0 | 3.0 | 0.00 | 0.00 | 0.00 | 20 | 946.0 |
| 20260503223542 | 81 | 69 | 0.0 | 4.0 | 0.00 | 0.00 | 0.00 | 20 | 946.0 |
| 20260503223336 | 81 | 68 | 1.0 | 4.0 | 0.00 | 0.00 | 0.00 | 20 | 946.0 |
| 20260503223128 | 81 | 158 | 2.0 | 7.0 | 0.00 | 0.00 | 0.00 | 20 | 946.0 |
| 20260503222918 | 80 | 158 | 0.0 | 7.0 | 0.00 | 0.00 | 0.00 | 20 | 946.0 |
| 20260503222719 | 80 | 158 | 3.0 | 7.0 | 0.00 | 0.00 | 0.00 | 20 | 946.0 |
| 20260503222510 | 80 | 263 | 1.0 | 7.0 | 0.00 | 0.00 | 0.00 | 20 | 946.0 |
| 20260503222304 | 79 | 34 | 4.0 | 7.0 | 0.00 | 0.00 | 0.00 | 20 | 946.0 |
| 20260503221742 | 79 | 282 | 1.0 | 6.0 | 0.00 | 0.00 | 0.00 | 20 | 946.0 |
| 20260503221543 | 79 | 343 | 3.0 | 6.0 | 0.00 | 0.00 | 0.00 | 20 | 946.0 |
| 20260503221342 | 79 | 53 | 1.0 | 5.0 | 0.00 | 0.00 | 0.00 | 20 | 946.0 |
| 20260503221133 | 80 | 54 | 3.0 | 5.0 | 0.00 | 0.00 | 0.00 | 20 | 946.0 |
| 20260503220932 | 79 | 52 | 0.0 | 5.0 | 0.00 | 0.00 | 0.00 | 20 | 947.0 |
| 20260503220726 | 80 | 28 | 4.0 | 5.0 | 0.00 | 0.00 | 0.00 | 20 | 947.0 |
| 20260503215853 | 80 | 48 | 0.0 | 3.0 | 0.00 | 0.00 | 0.00 | 20 | 947.0 |
| 20260503215648 | 80 | 48 | 3.0 | 3.0 | 0.00 | 0.00 | 0.00 | 20 | 947.0 |
| 20260503215440 | 79 | 58 | 0.0 | 0.0 | 0.00 | 0.00 | 0.00 | 21 | 947.0 |
| 20260503215232 | 79 | 58 | 0.0 | 0.0 | 0.00 | 0.00 | 0.00 | 20 | 947.0 |
| 20260503215027 | 79 | 58 | 0.0 | 0.0 | 0.00 | 0.00 | 0.00 | 20 | 947.0 |
| 20260503214821 | 79 | 58 | 0.0 | 0.0 | 0.00 | 0.00 | 0.00 | 20 | 947.0 |
| 20260503214622 | 79 | 58 | 0.0 | 0.0 | 0.00 | 0.00 | 0.00 | 20 | 947.0 |
| 20260503214419 | 79 | 58 | 2.0 | 5.0 | 0.00 | 0.00 | 0.00 | 20 | 947.0 |
| 20260503214217 | 79 | 56 | 3.0 | 5.0 | 0.00 | 0.00 | 0.00 | 20 | 947.0 |
| 20260503214013 | 79 | 30 | 2.0 | 5.0 | 0.00 | 0.00 | 0.00 | 20 | 947.0 |
| 20260503213811 | 79 | 173 | 3.0 | 5.0 | 0.00 | 0.00 | 0.00 | 20 | 947.0 |
| 20260503213602 | 79 | 336 | 0.0 | 3.0 | 0.00 | 0.00 | 0.00 | 20 | 947.0 |
| 20260503213359 | 79 | 336 | 1.0 | 3.0 | 0.00 | 0.00 | 0.00 | 20 | 947.0 |
| 20260503213150 | 80 | 100 | 2.0 | 3.0 | 0.00 | 0.00 | 0.00 | 20 | 947.0 |
| 20260503212619 | 80 | 308 | 1.0 | 5.0 | 0.00 | 0.00 | 0.00 | 21 | 947.0 |
| 20260503212410 | 80 | 328 | 2.0 | 5.0 | 0.00 | 0.00 | 0.00 | 20 | 947.0 |
| 20260503212208 | 80 | 169 | 1.0 | 5.0 | 0.00 | 0.00 | 0.00 | 21 | 947.0 |
| 20260503212001 | 80 | 161 | 1.0 | 5.0 | 0.00 | 0.00 | 0.00 | 20 | 947.0 |
| 20260503211755 | 79 | 287 | 3.0 | 5.0 | 0.00 | 0.00 | 0.00 | 21 | 947.0 |
| 20260503211555 | 79 | 337 | 2.0 | 4.0 | 0.00 | 0.00 | 0.00 | 20 | 947.0 |
| 20260503211347 | 79 | 326 | 3.0 | 4.0 | 0.00 | 0.00 | 0.00 | 20 | 947.0 |
| 20260503211139 | 80 | 340 | 3.0 | 4.0 | 0.00 | 0.00 | 0.00 | 20 | 947.0 |
| 20260503210935 | 81 | 281 | 2.0 | 4.0 | 0.00 | 0.00 | 0.00 | 20 | 948.0 |
| 20260503210729 | 81 | 207 | 2.0 | 4.0 | 0.00 | 0.00 | 0.00 | 20 | 948.0 |
| 20260503210522 | 81 | 206 | 2.0 | 4.0 | 0.00 | 0.00 | 0.00 | 20 | 948.0 |
| 20260503210322 | 80 | 212 | 1.0 | 4.0 | 0.00 | 0.00 | 0.00 | 21 | 948.0 |
| 20260503210118 | 80 | 45 | 0.0 | 0.0 | 0.00 | 0.00 | 0.00 | 21 | 948.0 |
| 20260503205916 | 80 | 46 | 0.0 | 0.0 | 0.00 | 0.00 | 0.00 | 21 | 948.0 |
| 20260503205716 | 80 | 46 | 0.0 | 0.0 | 0.00 | 0.00 | 0.00 | 21 | 948.0 |
| 20260503205516 | 79 | 46 | 1.0 | 5.0 | 0.00 | 0.00 | 0.00 | 21 | 948.0 |
| 20260503205308 | 80 | 46 | 4.0 | 5.0 | 0.00 | 0.00 | 0.00 | 21 | 948.0 |
| 20260503204752 | 80 | 44 | 0.0 | 6.0 | 0.00 | 0.00 | 0.00 | 21 | 948.0 |
| 20260503204543 | 79 | 146 | 3.0 | 6.0 | 0.00 | 0.00 | 0.00 | 21 | 948.0 |
| 20260503204336 | 78 | 162 | 4.0 | 6.0 | 0.00 | 0.00 | 0.00 | 22 | 948.0 |
| 20260503204131 | 78 | 194 | 1.0 | 6.0 | 0.00 | 0.00 | 0.00 | 21 | 948.0 |
| 20260503203932 | 77 | 64 | 0.0 | 6.0 | 0.00 | 0.00 | 0.00 | 21 | 948.0 |
| 20260503203722 | 77 | 330 | 0.0 | 6.0 | 0.00 | 0.00 | 0.00 | 22 | 948.0 |
| 20260503203517 | 78 | 334 | 0.0 | 6.0 | 0.00 | 0.00 | 0.00 | 21 | 948.0 |
| 20260503203315 | 78 | 333 | 1.0 | 6.0 | 0.00 | 0.00 | 0.00 | 21 | 948.0 |
| 20260503203106 | 79 | 353 | 3.0 | 6.0 | 0.00 | 0.00 | 0.00 | 21 | 948.0 |
| 20260503202856 | 79 | 22 | 2.0 | 4.0 | 0.00 | 0.00 | 0.00 | 21 | 948.0 |
| 20260503202646 | 79 | 316 | 0.0 | 3.0 | 0.00 | 0.00 | 0.00 | 22 | 948.0 |